When you browse on this site, cookies collect data to enhance your experience and personalize the content and advertising you see.
Visit our Privacy Policy to learn more. By continuing to use the site, you agree to this use of cookies and data.
  • In Spain
  • List of Countries
  • For 7 days
  • Water Temperature
  • Satellite Maps
  • Weather Map
  • Weather Widgets
  • user-avatar
    Login

    Hourly Weather Akka

    Today, 18 February, Monday

    Time Temperature Precipitation Wind Pressure Humidity
    00:00 +10°C° 0.2 mm 3 mps 764 mmHg 80%
    01:00 +9°C° 0.2 mm 3 mps 764 mmHg 81%
    02:00 +9°C° 0 mm 2 mps 764 mmHg 80%
    03:00 +9°C° 0.4 mm 3 mps 764 mmHg 79%
    04:00 +9°C° 0.4 mm 3 mps 764 mmHg 79%
    05:00 +9°C° 0.4 mm 3 mps 764 mmHg 79%
    06:00 +9°C° 0.1 mm 3 mps 764 mmHg 77%
    07:00 +10°C° 0.1 mm 4 mps 764 mmHg 76%
    08:00 +11°C° 0 mm 4 mps 764 mmHg 73%
    09:00 +12°C° 0 mm 4 mps 764 mmHg 70%
    10:00 +13°C° 0 mm 4 mps 763 mmHg 67%
    11:00 +14°C° 0 mm 4 mps 763 mmHg 64%
    12:00 +14°C° 0.3 mm 4 mps 763 mmHg 66%
    13:00 +14°C° 0.3 mm 4 mps 763 mmHg 67%
    14:00 +14°C° 0 mm 3 mps 763 mmHg 70%
    15:00 +14°C° 0.2 mm 3 mps 763 mmHg 73%
    16:00 +14°C° 0.2 mm 2 mps 763 mmHg 75%
    17:00 +14°C° 0.2 mm 1 mps 763 mmHg 78%
    18:00 +13°C° 0 mm 1 mps 763 mmHg 79%
    19:00 +12°C° 0 mm 1 mps 763 mmHg 80%
    20:00 +11°C° 0 mm 1 mps 764 mmHg 81%
    21:00 +10°C° 0 mm 0 mps 764 mmHg 82%
    22:00 +10°C° 0 mm 0 mps 764 mmHg 82%
    23:00 +10°C° 0 mm 0 mps 764 mmHg 83%

    Tomorrow, 19 February, Tuesday

    Time Temperature Precipitation Wind Pressure Humidity
    00:00 +10°C° 0 mm 0 mps 764 mmHg 84%
    01:00 +11°C° 0 mm 1 mps 765 mmHg 84%
    02:00 +10°C° 0 mm 1 mps 765 mmHg 85%
    03:00 +11°C° 0 mm 1 mps 765 mmHg 85%
    04:00 +11°C° 0 mm 1 mps 765 mmHg 86%
    05:00 +10°C° 0 mm 2 mps 765 mmHg 86%
    06:00 +12°C° 0 mm 2 mps 765 mmHg 86%
    07:00 +12°C° 0 mm 2 mps 765 mmHg 86%
    08:00 +12°C° 0 mm 3 mps 766 mmHg 86%
    09:00 +13°C° 0.1 mm 3 mps 766 mmHg 83%
    10:00 +14°C° 0.1 mm 3 mps 766 mmHg 81%
    11:00 +16°C° 0.1 mm 3 mps 766 mmHg 79%
    12:00 +15°C° 0.2 mm 4 mps 766 mmHg 78%
    13:00 +15°C° 0.2 mm 4 mps 765 mmHg 77%
    14:00 +17°C° 0.2 mm 4 mps 765 mmHg 76%
    15:00 +15°C° 0.3 mm 4 mps 765 mmHg 78%
    16:00 +15°C° 0.3 mm 4 mps 765 mmHg 80%
    17:00 +14°C° 0.3 mm 4 mps 765 mmHg 82%
    18:00 +14°C° 0.2 mm 3 mps 766 mmHg 83%
    19:00 +14°C° 0.2 mm 3 mps 766 mmHg 83%
    20:00 +13°C° 0.2 mm 3 mps 766 mmHg 84%
    21:00 +13°C° 0.1 mm 3 mps 766 mmHg 84%
    22:00 +14°C° 0.1 mm 2 mps 766 mmHg 84%
    23:00 +14°C° 0.1 mm 2 mps 766 mmHg 84%

    Day after tomorrow, 20 February, Wednesday

    Time Temperature Precipitation Wind Pressure Humidity
    00:00 +14°C° 0.2 mm 2 mps 766 mmHg 85%
    01:00 +14°C° 0.2 mm 2 mps 766 mmHg 85%
    02:00 +14°C° 0.2 mm 2 mps 766 mmHg 86%
    03:00 +14°C° 0.3 mm 2 mps 766 mmHg 86%
    04:00 +14°C° 0.3 mm 2 mps 766 mmHg 86%
    05:00 +14°C° 0.3 mm 2 mps 766 mmHg 86%
    06:00 +14°C° 0.2 mm 2 mps 766 mmHg 85%
    07:00 +14°C° 0.2 mm 2 mps 766 mmHg 83%
    08:00 +14°C° 0.2 mm 2 mps 767 mmHg 82%
    09:00 +15°C° 0.1 mm 2 mps 767 mmHg 79%
    10:00 +16°C° 0.1 mm 2 mps 767 mmHg 75%
    11:00 +17°C° 0.1 mm 3 mps 767 mmHg 72%
    12:00 +17°C° 0.1 mm 3 mps 766 mmHg 71%
    13:00 +17°C° 0.1 mm 3 mps 766 mmHg 69%
    14:00 +17°C° 0.1 mm 3 mps 766 mmHg 68%
    15:00 +17°C° 0 mm 2 mps 766 mmHg 70%
    16:00 +16°C° 0 mm 2 mps 766 mmHg 72%
    17:00 +15°C° 0 mm 2 mps 766 mmHg 73%
    18:00 +15°C° 0 mm 1 mps 766 mmHg 74%
    19:00 +14°C° 0 mm 1 mps 766 mmHg 75%
    20:00 +13°C° 0 mm 1 mps 766 mmHg 77%
    21:00 +13°C° 0 mm 1 mps 766 mmHg 78%
    22:00 +13°C° 0 mm 1 mps 766 mmHg 79%
    23:00 +12°C° 0 mm 2 mps 766 mmHg 80%

    21 February, Thursday

    Time Temperature Precipitation Wind Pressure Humidity
    00:00 +12°C° 0.1 mm 2 mps 766 mmHg 80%
    01:00 +12°C° 0.1 mm 2 mps 766 mmHg 80%
    02:00 +12°C° 0.1 mm 2 mps 765 mmHg 80%
    03:00 +12°C° 0.3 mm 2 mps 765 mmHg 81%
    04:00 +12°C° 0.3 mm 2 mps 765 mmHg 82%
    05:00 +12°C° 0.3 mm 2 mps 765 mmHg 83%
    06:00 +13°C° 0.1 mm 2 mps 765 mmHg 82%
    07:00 +12°C° 0.1 mm 3 mps 766 mmHg 82%
    08:00 +13°C° 0.1 mm 3 mps 766 mmHg 81%
    09:00 +14°C° 0 mm 3 mps 766 mmHg 77%
    10:00 +16°C° 0 mm 3 mps 766 mmHg 72%
    11:00 +17°C° 0 mm 3 mps 766 mmHg 68%
    12:00 +17°C° 0 mm 3 mps 766 mmHg 67%
    13:00 +18°C° 0 mm 3 mps 765 mmHg 66%
    14:00 +18°C° 0 mm 3 mps 765 mmHg 65%
    15:00 +17°C° 0 mm 3 mps 765 mmHg 69%
    16:00 +16°C° 0 mm 2 mps 765 mmHg 74%
    17:00 +16°C° 0 mm 1 mps 765 mmHg 78%
    18:00 +15°C° 0 mm 1 mps 765 mmHg 80%
    19:00 +14°C° 0 mm 1 mps 765 mmHg 82%
    20:00 +12°C° 0 mm 0 mps 766 mmHg 84%
    21:00 +13°C° 0 mm 1 mps 766 mmHg 85%
    22:00 +13°C° 0 mm 1 mps 766 mmHg 85%
    23:00 +13°C° 0 mm 1 mps 766 mmHg 86%

    22 February, Friday

    Time Temperature Precipitation Wind Pressure Humidity
    00:00 +12°C° 0 mm 1 mps 766 mmHg 86%
    01:00 +12°C° 0 mm 1 mps 765 mmHg 87%
    02:00 +12°C° 0 mm 1 mps 765 mmHg 87%
    03:00 +12°C° 0 mm 2 mps 765 mmHg 88%
    04:00 +12°C° 0 mm 2 mps 765 mmHg 88%
    05:00 +12°C° 0 mm 2 mps 765 mmHg 89%
    06:00 +12°C° 0 mm 2 mps 765 mmHg 87%
    07:00 +13°C° 0 mm 2 mps 765 mmHg 85%
    08:00 +13°C° 0 mm 3 mps 765 mmHg 84%
    09:00 +15°C° 0 mm 2 mps 765 mmHg 78%
    10:00 +16°C° 0 mm 2 mps 765 mmHg 73%
    11:00 +17°C° 0 mm 2 mps 765 mmHg 68%
    12:00 +18°C° 0 mm 2 mps 764 mmHg 66%
    13:00 +18°C° 0 mm 3 mps 764 mmHg 65%
    14:00 +18°C° 0 mm 3 mps 763 mmHg 64%
    15:00 +18°C° 0 mm 3 mps 763 mmHg 68%
    16:00 +17°C° 0 mm 2 mps 762 mmHg 72%
    17:00 +16°C° 0 mm 2 mps 762 mmHg 77%
    18:00 +15°C° 0 mm 1 mps 762 mmHg 79%
    19:00 +14°C° 0 mm 1 mps 763 mmHg 81%
    20:00 +13°C° 0 mm 1 mps 763 mmHg 83%
    21:00 +13°C° 0 mm 1 mps 763 mmHg 84%
    22:00 +13°C° 0 mm 2 mps 763 mmHg 84%
    23:00 +13°C° 0 mm 2 mps 763 mmHg 84%

    23 February, Saturday

    Time Temperature Precipitation Wind Pressure Humidity
    00:00 +13°C° 0 mm 2 mps 763 mmHg 85%
    01:00 +13°C° 0 mm 2 mps 762 mmHg 86%
    02:00 +13°C° 0 mm 2 mps 762 mmHg 86%
    03:00 +13°C° 0 mm 2 mps 762 mmHg 87%
    04:00 +11°C° 0 mm 3 mps 762 mmHg 87%
    05:00 +11°C° 0 mm 3 mps 761 mmHg 88%
    06:00 +12°C° 0 mm 3 mps 762 mmHg 86%
    07:00 +12°C° 0 mm 3 mps 762 mmHg 85%
    08:00 +13°C° 0 mm 4 mps 762 mmHg 83%
    09:00 +14°C° 0 mm 4 mps 762 mmHg 77%
    10:00 +15°C° 0 mm 4 mps 761 mmHg 71%
    11:00 +18°C° 0 mm 4 mps 761 mmHg 64%
    12:00 +18°C° 0 mm 4 mps 761 mmHg 64%
    13:00 +18°C° 0 mm 4 mps 760 mmHg 64%
    14:00 +17°C° 0 mm 5 mps 760 mmHg 63%
    15:00 +18°C° 0 mm 4 mps 759 mmHg 67%
    16:00 +17°C° 0 mm 4 mps 759 mmHg 71%
    17:00 +16°C° 0 mm 3 mps 759 mmHg 75%
    18:00 +14°C° 0 mm 3 mps 759 mmHg 75%
    19:00 +14°C° 0 mm 3 mps 759 mmHg 76%
    20:00 +13°C° 0 mm 3 mps 759 mmHg 77%
    21:00 +14°C° 0 mm 2 mps 759 mmHg 78%
    22:00 +13°C° 0 mm 2 mps 759 mmHg 79%
    23:00 +13°C° 0 mm 2 mps 759 mmHg 80%
    Show more